Flight Information

DEPARTURE
EAGLE, CO
Elevation:
6547
Runways:
7/25 - 9000x150 - ASPH-E
ATIS:
135.575
Clearance Delivery:
124.75
Ground:
121.8
Tower:
EAGLE TOWER 119.8
DESTINATION
,
Elevation:
TPA:
1000 (est.)


6176.6 NM79° True-12° Var66° HDG

Flight Plan:
(click to file on line)

1. Type
2. Aircraft Identification
3. Aircraft Type / Special Equipment
4. True Airspeed
kts
5. Departure Airport
(ICAO code)
6. Arriving Airport
(ICAO code)
7. Cruising Altitude
ft
8. Alternate Airport
(ICAO code)
9. Route of Flight
10. Remarks


00:00:00 Departure ATIS: Destination ATIS:

Clearance Limit:
Route:
Altitude: Expect in minutes
Frequency:
Transponder: (7500 Hijack / 7600 Lost Comms / 7700 Emergency)


KEGE 221356Z 10005KT 10SM BKN045 OVC065 M01/M04 A3001 RMK AO2 SLP188 T10111039
Time: 2021-01-22T13:56:00Z
1611327382
Winds: 100 @ 5 kts
Visibility: 10.0 sm
Clouds (AGL): BKN 4500
OVC 6500
Temperature: -1.1 C
Dew Point: -3.9 C
Pressure: 30.008858 in Hgbr


Notes:

Data extracted from FAA Digital Chart Supplement. Effective: 0901Z Thursday, Dec 31, 2020 to 0901Z Thursday, Jan 28, 2021
Current ATIS data is provided courtisy of PilotEdge.